Weather History for Barksdale AFB, LA

Change the Weather History Date:

Tuesday, October 9, 2012

  Actual Average Record
Temperature  
Mean Temperature 58 °F -  
Max Temperature 77 °F 74 °F 90 °F (2010)
Min Temperature 40 °F 54 °F 37 °F (2000)
Degree Days  
Heating Degree Days 7    
Growing Degree Days 8 (Base 50)    
Moisture  
Dew Point 52 °F    
Average Humidity 78    
Maximum Humidity 97    
Minimum Humidity 54    
Precipitation  
Precipitation 0.00 in - - ()
Sea Level Pressure  
Sea Level Pressure 30.06 in    
Wind  
Wind Speed 3 mph (SSE)    
Max Wind Speed 9 mph    
Max Gust Speed -    
Visibility 10 miles    
Events      
Averages and records for this station are not official NWS values.
T = Trace of Precipitation, MM = Missing Value Source: NWS Daily Summary

Daily Weather History Graph

Daily Weather History Graph

Search for Another Location

Airport:

Trip Planner

Search our weather history database for the weather conditions in past years. The results will help you decide how hot, cold, wet, or windy it might be!

Date:

Astronomy

Oct. 09, 2012 Rise Set
Actual Time 7:14 AM CDT 6:48 PM CDT
Civil Twilight 6:49 AM CDT 7:13 PM CDT
Nautical Twilight 6:21 AM CDT 7:41 PM CDT
Astronomical Twilight 5:52 AM CDT 8:09 PM CDT
Moon 1:11 AM CDT (10/9) 2:58 PM CDT (10/9)
Length of Visible Light 12h 23m
Length of Day
11h 33m
Last Quarter, 36% of the Moon is Illuminated
Oct 9
Last Quarter
Oct 15
New
Oct 21
First Quarter
Oct 29
Full
Nov 6
Last Quarter

Hourly Weather History & Observations

Time (CDT) Temp. Windchill Dew Point Humidity Pressure Visibility Wind Dir Wind Speed Gust Speed Precip Events Conditions
12:55 AM 45.9 °F - 44.2 °F 94% 30.14 in 10.0 mi Calm Calm - N/A   Clear
1:55 AM 45.3 °F - 44.1 °F 95% 30.13 in 10.0 mi Calm Calm - N/A   Clear
2:55 AM 44.8 °F - 43.3 °F 95% 30.13 in 10.0 mi Calm Calm - N/A   Clear
3:55 AM 43.0 °F - 42.3 °F 97% 30.13 in 10.0 mi Calm Calm - N/A   Clear
4:55 AM 43.0 °F - 41.7 °F 95% 30.12 in 10.0 mi Calm Calm - N/A   Clear
5:55 AM 42.1 °F - 40.5 °F 94% 30.13 in 10.0 mi Calm Calm - N/A   Clear
6:55 AM 40.8 °F - 39.9 °F 97% 30.13 in 10.0 mi Calm Calm - N/A   Clear
7:55 AM 43.5 °F 40.9 °F 42.4 °F 96% 30.14 in 10.0 mi SSE 4.6 mph - N/A   Clear
8:55 AM 50.5 °F - 47.1 °F 88% 30.15 in 10.0 mi SSE 4.6 mph - N/A   Clear
9:55 AM 56.7 °F - 49.1 °F 76% 30.14 in 10.0 mi SSE 9.2 mph - N/A   Clear
10:55 AM 61.9 °F - 49.1 °F 63% 30.13 in 10.0 mi South 9.2 mph - N/A   Clear
11:55 AM 64.4 °F - 50.5 °F 61% 30.11 in 10.0 mi South 9.2 mph - N/A   Overcast
12:55 PM 67.8 °F - 52.5 °F 58% 30.07 in 7.0 mi Variable 6.9 mph - N/A   Mostly Cloudy
1:55 PM 72.1 °F - 55.0 °F 55% 30.03 in 10.0 mi SSW 5.8 mph - N/A   Scattered Clouds
2:55 PM 74.7 °F - 56.8 °F 54% 30.00 in 10.0 mi South 6.9 mph - N/A   Scattered Clouds
3:55 PM 75.6 °F - 58.3 °F 55% 29.97 in 10.0 mi Variable 6.9 mph - N/A   Overcast
4:55 PM 76.3 °F - 58.8 °F 55% 29.95 in 10.0 mi SSE 9.2 mph - N/A   Mostly Cloudy
5:55 PM 73.6 °F - 59.7 °F 62% 29.95 in 10.0 mi South 4.6 mph - N/A   Mostly Cloudy
6:55 PM 70.7 °F - 60.8 °F 71% 29.94 in 10.0 mi SE 5.8 mph - N/A   Overcast
7:55 PM 68.9 °F - 61.5 °F 77% 29.96 in 10.0 mi SE 4.6 mph - N/A   Overcast
8:55 PM 68.7 °F - 62.1 °F 79% 29.97 in 10.0 mi SE 4.6 mph - N/A   Overcast
9:55 PM 68.4 °F - 61.7 °F 79% 30.00 in 10.0 mi Calm Calm - N/A   Overcast
10:55 PM 68.4 °F - 62.1 °F 80% 30.02 in 10.0 mi Calm Calm - N/A   Overcast
11:55 PM 66.2 °F - 62.4 °F 88% 30.03 in 10.0 mi SSE 3.5 mph - N/A   Overcast